Preview of NWS' New Version of Forecast
This preview is not operational and should not be used for support decisions.

Regional Weather Roundup (RWR)

Issued by National Weather Service (NWS)

                            
000
ASUS45 KABQ 181601
RWRNM 
NEW MEXICO REGIONAL WEATHER ROUNDUP
NATIONAL WEATHER SERVICE ALBUQUERQUE NM
900 AM MST MON FEB 18 2019

NOTE: "FAIR" MEANS FEW OR NO CLOUDS BELOW 12,000 FEET AGL WITH NO
       SIGNIFICANT WEATHER OR OBSTRUCTIONS TO VISION.

      THIS PRODUCT IS RELEASED AS TWO VERSIONS.  ONE VERSION NEAR
      THE TOP OF THE HOUR CONTAINING PRELIMINARY DATA FROM ALBUQUERQUE
      AND OTHER STATIONS.  A FINAL VERSION WITH ADDITIONAL DATA IS 
      ISSUED ABOUT 10 MINUTES AFTER THE HOUR.
 
NMZ501-503-504-510>518-181700-
NORTHWEST PLATEAU/NORTHCENTRAL MOUNTAINS
  
CITY           SKY/WX    TMP DP  RH WIND       PRES   REMARKS
FARMINGTON     CLOUDY    26  21  81 E10       29.90R WCI  16          
LOS ALAMOS     CLOUDY    24  19  81 S12       29.97R WCI  13          
SANTA FE       CLOUDY    26  19  74 SE25G31   29.98R WCI  11          
TAOS           CLOUDY    24  15  68 SE9       29.98R WCI  14          
ANGEL FIRE       N/A     13   7  76 S10       29.97R WCI   0          

$$
NMZ402-403-502-505>509-181700-
WESTCENTRAL MOUNTAINS/SOUTHWEST MOUNTAINS
  
CITY           SKY/WX    TMP DP  RH WIND       PRES   REMARKS
GALLUP         CLOUDY    26  18  71 S15G26    29.85S WCI  14          
GRANTS         CLOUDY    26  19  75 SE17G23   29.94R WCI  14          
SILVER CITY    FAIR      38  12  34 CALM      29.98R                  

$$
NMZ407-409-411-412-181700-
SOUTHERN DESERTS
  
CITY           SKY/WX    TMP DP  RH WIND       PRES   REMARKS
DEMING         FAIR      33  16  49 CALM      30.01R                  
LAS CRUCES     FAIR      44  19  37 CALM      30.02S                  
HOLLOMAN AFB   FAIR      39  11  31 CALM      30.05R                  
ALAMOGORDO     FAIR      39  10  30 S3        30.03S                  
T OR C         FAIR      37  14  38 CALM      30.00R                  

$$
NMZ519>523-181700-
CENTRAL VALLEYS/CENTRAL HIGHLANDS
  
CITY           SKY/WX    TMP DP  RH WIND       PRES   REMARKS
ALBUQUERQUE    FAIR      33  17  51 SW5       29.99S WCI  29          
DOUBLE EAGLE   MOSUNNY   30  18  59 SE8       29.99R WCI  23          
MORIARTY ARPT  FAIR      28  20  70 E23       30.04R WCI  14          
CLINES CORNERS FOG       16  13  88 E17G28    30.02R VSB<1/4 WCI   0  
BELEN          FAIR      34  15  45 SE6       30.00R WCI  29          
SOCORRO        NOT AVBL                                               

$$
NMZ524>526-539-540-181700-
SOUTHCENTRAL MOUNTAINS
  
CITY           SKY/WX    TMP DP  RH WIND       PRES   REMARKS
RUIDOSO        NOT AVBL                                               

$$
NMZ527>531-181700-
NORTHEAST HIGHLANDS/NORTHEAST PLAINS
  
CITY           SKY/WX    TMP DP  RH WIND       PRES   REMARKS
LAS VEGAS      SNOW      14  11  87 E15       30.06S VSB 1/2 WCI  -1  
RATON          LGT SNOW  12   6  77 N5        30.10R WCI   4          
CLAYTON        LGT SNOW  10   6  84 NE6       30.20S FOG     WCI   0  

$$
NMZ532>537-181700-
EASTCENTRAL PLAINS
  
CITY           SKY/WX    TMP DP  RH WIND       PRES   REMARKS
SANTA ROSA     CLOUDY    21  17  86 NE14G20   30.15R FOG     WCI   8  
TUCUMCARI      CLOUDY    20  13  74 E16       30.22R WCI   6          
CANNON AFB     CLOUDY    22  15  76 E16G24    30.19R WCI   8          
CLOVIS AIRPORT CLOUDY    21  16  81 E17       30.21R WCI   7          

$$
NMZ028-029-538-181700-
SOUTHEAST PLAINS
  
CITY           SKY/WX    TMP DP  RH WIND       PRES   REMARKS
ROSWELL        FAIR      36  23  59 E9        30.11R WCI  29          
ARTESIA        FAIR      37  23  56 SE17      30.12R WCI  28          
CARLSBAD       FAIR      37  24  59 E7        30.11R WCI  32          
HOBBS          SUNNY     32  23  69 E18G25    30.15R WCI  20          


$$